Reflectivity
-17 -20 -20 -20 -20 -20 -20 -20 -20 -20 -20 -20 -20 -20 -20 -20 -20 -20 -20 -20 -20 -20 -20 -20 -20 -20 -20 -20 -20 -20 -20 -20 -20 -20 -20 -20 -20 -20 -20 -20 -20 -20 -20 -20
-20 -6 -20 -20 -20 -13 -20 -20 -20 -20 -20 -15 -20 -20 -20 -20 -20 -20 -20 -20 -20 -20 -20 -20 -20 -20 -20 -20 -20 -20 -20 -20 -20 -20 -20 -20 -20 -20 -20 -20 -20 -20 -20 -20
-20 -7 -20 -20 -20 -20 -20 -20 -20 -20 -20 -20 -20 -20 -20 -20 -20 -20 -20 -20 -20 -20 -20 -20 -20 -20 -20 -20 -20 -20 -20 -20 -20 -20 -20 -20 -20 -20 -20 -20 -20 -20 -20 -20
-17 -20 -20 -20 -20 -20 -20 -20 -20 -20 -20 -20 -20 -20 -20 -20 -20 -20 -20 -20 -20 -20 -20 -20 -20 -20 -20 -20 -20 -20 -20 -20 -20 -20 -20 -20 -20 -20 -20 -20 -20 -20 -20 -20
-12 -20 -7 -20 -20 -20 -20 -20 -19 -20 -20 -20 -20 -20 -20 -20 -20 -20 -20 -20 -20 -20 -20 -20 -20 -20 -20 -20 -20 -20 -20 -20 -20 -20 -20 -20 -20 -20 -20 -20 -20 -20 -20 -20
-19 -20 -4 -20 -20 -20 -20 -20 -6 6 -20 -20 -20 -20 -20 -20 -20 -20 -20 -20 -20 -20 -20 -20 -20 -20 -20 -20 -20 -20 -20 -20 -20 -20 -20 -20 -20 -20 -20 -20 -20 -20 -20 -20
-6 -0 -18 -18 -20 -20 -20 2 -5 -17 -20 -20 -20 -20 -20 -20 -20 -20 -20 -20 -20 -20 -20 -20 -20 -20 -20 -20 -20 -20 -20 -20 -20 -20 -20 -20 -20 -20 -20 -20 -20 -20 -20 -20
9 -15 -20 -17 -18 -20 -20 -20 -20 -20 -20 -20 -20 -20 -20 -20 -20 -20 -20 -20 -20 -20 -20 -20 -20 -3 -18 -20 -20 -20 -20 -20 -20 -20 -20 -20 -20 -20 -20 -20 -20 -20 -20 -20
13 -18 -20 -10 1 -1 -20 -20 -20 -13 -17 -20 -20 -18 -20 -20 -20 -20 -20 -20 -20 -20 -20 -20 -20 -20 -20 -11 3 -20 -20 -20 -20 -20 -20 -20 -20 -20 -20 -20 -20 -20 -20 -20
21 17 -6 -5 -14 -17 -20 -20 -20 -20 -20 -20 -20 -20 -20 -20 -20 -20 -20 -20 -20 -20 -20 -20 -20 -20 -20 -20 -20 -4 -1 6 -15 -20 -18 -20 -20 -20 -20 -20 -20 -20 -20 -20
14 19 15 2 -20 -20 -18 -20 -20 -20 -20 -20 -20 -20 -20 -20 -20 -20 -20 -20 -20 -20 -20 -20 -20 -20 -20 -20 -20 -20 -20 -20 -10 -8 -17 -20 -20 -20 -20 -20 -20 -20 -20 -20
11 15 19 17 -3 -20 11 -20 -17 -20 -9 -20 -20 -20 -20 -20 -18 -15 -10 -20 -20 -20 -20 -20 -20 -20 -20 -20 -20 -20 -20 -20 -20 -20 -20 -20 -20 -20 -20 -20 -20 -20 -20 -20
-11 -4 25 16 4 13 7 -20 -13 -9 4 -11 -20 -20 -20 -20 -20 -18 -6 -10 -11 -20 -20 -20 -20 -20 -20 -20 -20 -20 -20 -20 -20 -20 -20 -20 -20 -20 -20 -20 -20 -20 -20 -20
13 5 22 26 7 6 13 8 -19 4 -1 -14 -20 -20 -20 -20 -20 -20 -19 -4 4 -2 3 -12 -18 -20 -20 -20 -20 -20 -20 -20 -20 -20 -20 -20 -20 -20 -20 -20 -20 -20 -20 -20
17 20 19 20 2 10 7 -20 -20 -19 5 -5 -17 -20 -20 -20 -20 -20 -20 7 25 12 16 -2 -20 -20 -20 -20 -20 -20 -20 -20 -20 -20 -20 -20 -20 -20 -20 -20 -20 -20 -20 -20
19 24 19 11 6 10 -20 -19 -2 -20 -20 11 -20 -20 -20 -20 -20 -20 -19 10 15 18 31 -5 -20 -20 -20 -20 -20 -20 -20 -20 -20 -20 -20 -20 -20 -20 -20 -20 -20 -20 -20 -20
18 24 16 -2 -10 -20 -20 -20 -20 -20 -1 19 -20 -20 1 -4 -19 -16 7 15 22 41 37 -20 -20 -20 -20 -20 -20 -20 -20 -20 -20 -20 -20 -19 -12 -20 -20 -20 -20 -20 -20 -20
22 -8 -18 -20 -20 -20 -10 -20 -20 -20 -15 0 -12 1 21 12 3 21 28 32 33 27 13 -20 -20 -20 -20 -15 -20 -20 -20 -20 -20 -19 -20 -20 -20 -20 -20 -20 -20 -20 -20 -20
18 8 5 -19 -20 -20 -20 -9 1 4 -17 1 6 -8 -11 5 15 33 25 39 41 37 20 -16 -20 -20 -16 -10 -14 -20 -20 -20 -20 -20 -20 -20 -20 -20 -20 -20 -20 -20 -20 -20
2 7 2 -20 -20 -20 -20 15 10 21 30 15 -4 19 23 34 36 33 36 36 30 9 -1 -19 -20 -20 -20 -20 -20 -20 -20 -20 -20 -20 -20 -20 -20 -20 -20 -20 -20 -20 -20 -20
11 7 -20 -20 -20 -20 -1 -6 5 0 -15 16 5 30 29 16 -2 10 -0 8 -10 -12 8 -3 8 -20 -20 -20 -20 -20 -20 -20 -20 -20 -20 -20 -20 -20 -20 -20 -20 -20 -20 -20
-10 -12 -17 1 5 -7 -16 -20 -19 -7 -20 22 24 28 25 20 -10 -8 -14 6 -11 -20 -17 -3 -20 -20 -20 -20 -20 -20 -20 -20 -20 -20 -20 -20 -20 -20 -20 -20 -20 -20 -20 -20
-20 -10 -20 2 -14 -20 -20 -20 -20 -20 13 14 25 17 6 18 -20 -18 13 -10 -20 -20 -20 -20 -20 -20 -20 -20 -20 -20 -20 -20 -20 -20 9 11 11 -14 -7 -17 -20 -7 -20 -20
-20 -20 -20 -20 -16 -18 -20 -20 -20 -20 -18 -20 -15 19 27 24 28 13 -15 -9 -20 -20 -20 -20 -20 -20 -20 -20 -20 -20 -20 -20 -20 -20 -19 25 24 16 21 18 20 -19 -19 -20
-20 -20 -20 -19 3 -19 -20 -20 -20 -20 -20 4 -20 -7 -3 32 26 3 22 -10 -20 -20 -20 -20 -20 -20 -20 -20 -20 -20 -20 -20 -20 -20 -20 6 13 32 32 26 5 -20 -20 -10
-20 -20 -20 -20 -20 -20 -20 -20 -20 -20 -20 -20 11 3 18 4 8 -18 -20 -20 -20 -20 -20 -20 -20 -20 -20 -20 -20 -20 -20 -20 -20 -20 -20 -20 -7 5 -10 -20 -20 -20 -19 3
-20 -20 -20 -20 -20 -20 -20 -20 -20 -20 -17 -15 -4 -9 -20 16 -19 -20 -20 -10 -1 -20 -20 -20 -20 -20 -20 -20 -20 -20 -20 -20 -20 -20 -20 -20 -20 -20 -20 -20 -20 -20 -20 -10
Wind_Speed
21 24 26 28 28 25 7 2 4 2 2 4 1 3 4 6 4 3 4 4 4 4 3 3 2 7 2 5 6 5 2 5 3 2 0 1 2 4 5 5 4 2 2 8
20 23 25 27 27 24 2 2 3 3 2 4 4 3 2 2 4 3 1 3 3 2 4 4 2 4 1 7 4 6 5 2 3 4 3 3 2 3 4 4 3 6 5 7
19 21 24 26 27 23 3 3 4 5 4 1 2 5 4 4 3 3 3 3 3 4 3 4 4 2 3 6 6 6 6 3 5 6 5 4 3 5 5 6 3 4 7 8
18 20 22 25 28 21 3 4 2 1 3 4 4 3 5 4 4 4 4 4 2 5 4 2 3 2 2 3 3 4 4 4 2 4 5 4 4 4 8 8 5 7 3 7
16 18 21 24 27 15 5 2 3 3 2 2 4 3 4 5 4 4 3 6 4 3 4 5 7 6 3 4 2 4 1 3 2 4 2 5 5 9 9 10 7 13 15 20
15 16 18 20 23 13 4 2 2 1 3 4 2 1 3 5 2 2 4 3 3 4 3 2 4 2 4 5 8 4 4 5 3 4 3 6 6 9 13 6 6 10 8 12
16 14 15 17 17 12 1 2 2 2 4 2 2 4 3 2 3 1 2 3 3 2 2 1 5 7 6 7 3 4 5 4 2 3 4 1 4 3 6 12 4 11 6 9
13 14 13 13 14 12 4 2 3 3 3 4 5 6 5 4 2 2 1 2 1 1 3 4 3 2 1 1 2 4 4 4 3 2 3 8 3 2 6 6 3 9 11 12
8 12 12 11 12 8 4 1 0 1 3 2 5 4 4 2 2 3 2 1 1 4 3 2 3 4 5 4 3 3 4 6 4 3 2 4 4 0 1 2 2 3 7 8
12 7 12 8 9 7 3 1 2 1 3 2 2 3 4 3 2 2 2 3 2 2 3 2 3 4 3 5 6 5 4 3 5 4 3 7 8 4 2 2 5 2 3 6
14 9 10 9 7 8 2 3 2 3 2 6 3 3 3 4 2 2 2 3 1 2 3 4 4 4 5 4 5 6 6 7 4 4 4 8 4 4 4 4 2 4 4 4
15 15 15 9 8 8 2 2 2 3 3 7 5 12 11 8 13 5 4 3 3 5 4 1 2 2 2 3 4 1 4 7 6 8 7 3 2 2 4 4 5 4 3 4
16 17 17 9 11 9 6 2 2 1 4 6 5 10 11 12 15 12 4 3 2 2 4 4 2 3 4 4 5 2 3 4 3 1 4 6 6 7 6 4 5 4 5 5
11 15 19 13 12 11 9 2 3 2 3 5 6 2 5 7 7 9 16 13 7 7 1 2 2 3 3 4 2 3 5 4 4 4 5 7 1 2 2 3 4 5 4 3
11 17 18 14 13 12 4 3 3 3 3 4 8 9 19 19 15 14 13 14 8 5 2 2 4 2 3 0 1 3 5 6 5 5 3 4 7 6 3 5 6 6 5 3
10 19 18 15 14 10 2 2 1 3 3 4 5 5 5 4 7 13 16 12 7 6 3 3 2 2 4 3 3 4 2 2 1 3 2 4 11 11 5 6 7 6 5 6
14 18 16 13 7 2 3 3 3 4 3 2 6 6 4 3 5 5 7 8 4 7 4 2 3 2 4 2 3 3 2 4 5 1 3 4 2 5 9 7 4 0 1 1
17 16 13 6 3 3 2 2 5 5 1 2 4 6 5 5 3 5 4 5 3 2 2 2 3 2 2 4 3 2 1 6 3 4 3 6 12 10 8 2 1 3 3 2
15 13 4 3 2 0 2 4 3 2 1 3 3 3 4 5 3 3 3 1 3 1 1 2 4 3 5 5 4 0 2 2 7 8 7 8 5 8 6 3 4 5 4 4
11 3 2 2 0 5 5 2 2 3 3 3 4 3 4 3 5 2 5 3 2 3 2 3 2 4 3 3 2 2 4 4 5 5 6 6 9 7 7 6 6 6 5 5
4 3 1 3 6 2 2 2 3 3 4 4 4 4 4 2 3 3 2 2 1 2 2 2 1 3 4 3 2 3 4 5 5 5 7 8 9 11 11 9 6 6 6 6
3 2 3 2 1 2 3 3 2 4 3 2 3 4 3 3 2 3 3 2 2 2 2 2 3 1 2 3 3 4 5 5 6 5 7 9 9 9 8 7 7 6 6 7
0 1 2 1 1 3 3 3 3 3 2 3 4 4 3 3 3 3 2 3 2 1 1 3 1 3 2 2 3 4 5 7 8 8 8 9 9 8 5 4 2 5 5 5
2 1 4 3 2 3 3 3 3 3 4 5 5 3 2 2 1 1 2 1 2 2 3 5 2 3 3 3 3 4 7 8 9 9 9 8 8 7 7 6 2 4 5 5
0 2 4 4 3 3 4 3 2 3 3 4 3 3 1 1 1 1 2 2 3 4 4 3 2 3 2 3 4 4 5 5 6 6 8 9 9 7 5 4 3 3 5 5
2 2 3 4 1 4 3 2 3 1 2 3 2 3 2 2 1 3 5 3 5 3 3 2 4 4 3 1 3 3 3 4 5 5 5 6 7 7 6 4 2 1 4 5
2 4 3 3 3 4 3 2 2 2 2 3 2 3 3 1 2 3 3 5 3 4 2 3 4 5 4 1 1 3 3 4 4 5 6 5 6 5 6 6 5 3 3 4
Wind_Direction
1 2 359 356 358 353 46 54 29 307 5 54 50 12 337 334 1 357 67 96 97 104 114 99 121 187 227 162 149 125 108 117 132 176 5 214 123 164 141 123 246 85 139 273
1 3 0 358 357 1 4 53 286 305 71 39 5 348 334 306 342 357 52 98 79 104 126 117 158 191 149 152 138 155 174 29 57 0 13 35 209 186 125 104 81 201 133 261
0 3 2 359 356 355 71 64 18 332 29 105 333 7 340 351 332 326 67 91 87 109 99 27 159 144 349 182 160 129 92 108 147 182 201 141 199 186 182 141 134 193 232 290
358 3 3 1 356 355 79 21 66 113 347 341 337 356 343 339 14 343 24 60 135 135 105 80 116 116 80 72 122 92 116 120 106 254 231 198 215 182 184 200 189 179 213 229
358 1 5 4 2 2 74 31 1 345 273 278 312 346 350 12 343 7 353 100 39 85 144 181 189 141 154 167 92 128 113 126 116 296 339 210 235 222 205 210 228 257 272 287
358 359 5 7 13 18 67 329 293 298 295 321 116 292 308 337 332 69 46 98 89 53 327 246 204 138 123 158 144 135 130 132 105 275 327 301 282 217 198 181 196 207 225 242
353 359 1 6 14 36 352 30 297 316 293 335 322 338 319 11 351 329 11 34 93 162 111 123 60 65 85 94 93 144 134 114 99 248 345 342 248 171 180 203 200 211 261 270
352 354 354 3 10 30 65 357 11 341 296 307 320 357 309 312 8 79 39 9 335 22 62 57 57 68 103 105 102 125 129 123 98 85 283 288 304 199 138 167 273 198 220 256
344 344 343 349 357 34 76 33 164 337 317 268 321 311 317 289 281 329 179 240 57 84 81 101 178 186 207 192 110 42 98 104 117 183 282 255 253 179 92 123 356 201 198 247
334 332 331 340 343 30 98 283 65 36 282 273 307 236 295 299 288 238 291 179 153 48 122 135 182 234 157 172 181 164 143 162 210 204 254 281 244 203 166 109 226 292 215 247
330 325 312 326 334 324 110 261 170 110 280 281 292 321 301 337 241 217 293 74 304 74 165 170 200 183 219 157 183 178 166 173 189 181 216 262 152 85 172 208 257 250 264 248
328 322 325 302 322 320 77 246 180 160 190 250 232 249 241 237 255 268 284 277 188 180 116 204 128 178 144 196 221 287 197 181 183 185 212 235 201 261 253 192 240 258 245 258
310 325 326 310 327 315 304 211 168 177 267 260 251 242 242 224 229 222 251 248 306 192 168 160 174 197 132 168 234 163 236 187 221 29 274 245 245 266 255 219 227 256 250 252
312 299 312 313 313 307 299 192 175 163 278 272 275 355 268 216 160 197 218 248 328 318 210 140 162 190 158 196 202 193 199 146 195 245 283 328 316 198 320 293 255 266 265 245
316 311 300 304 312 307 299 212 205 179 213 285 285 283 265 242 235 220 222 234 232 275 217 156 203 159 126 92 69 244 188 191 173 228 198 203 259 284 265 275 260 255 231 229
314 297 308 315 306 297 54 306 3 177 173 281 290 289 273 262 192 198 208 198 198 231 216 188 194 204 116 156 230 247 196 210 186 265 310 242 263 266 281 257 250 240 220 222
306 304 321 315 315 115 177 203 204 199 142 263 295 295 277 272 183 174 181 184 185 217 203 141 146 180 150 178 232 150 60 342 295 278 318 290 317 308 322 274 270 191 103 176
310 324 317 318 83 81 314 284 174 146 181 249 274 273 282 198 155 154 215 159 165 241 105 92 137 90 156 240 211 172 312 301 277 37 352 271 285 286 279 277 209 222 226 185
324 318 324 81 40 98 248 339 253 132 198 280 264 288 304 345 22 204 117 348 159 146 137 184 123 167 216 217 166 255 344 318 290 311 295 287 292 302 298 233 248 249 241 194
327 6 16 282 342 290 328 186 218 198 206 226 254 266 267 253 210 82 156 185 82 144 155 133 166 242 77 72 82 36 327 310 314 332 333 334 320 316 304 266 249 238 232 190
15 6 276 254 298 317 229 253 224 207 236 217 243 242 269 334 59 84 23 144 131 159 163 165 230 251 149 21 29 359 319 313 296 256 261 265 267 279 282 271 242 229 208 193
240 242 278 286 273 240 269 248 245 217 262 282 294 310 308 315 336 73 13 92 36 181 115 169 247 151 83 24 357 327 332 327 321 326 327 317 304 288 259 251 250 216 182 153
18 197 297 263 240 254 236 261 279 272 5 358 323 318 323 328 13 66 82 63 202 12 149 233 212 135 101 12 343 358 357 360 358 353 342 330 326 340 337 301 250 143 138 147
75 49 294 210 239 250 210 223 226 313 312 322 311 276 321 327 17 160 108 103 135 224 230 235 176 173 134 54 26 19 359 4 354 343 334 338 342 348 4 6 96 126 141 150
179 90 239 231 251 267 258 234 293 263 307 321 318 286 252 287 105 122 125 175 235 224 231 212 180 153 133 59 19 8 6 350 343 340 344 344 348 345 336 359 29 96 129 146
77 238 263 244 351 298 329 297 280 310 337 289 225 277 274 253 174 180 208 190 226 242 199 187 129 152 137 87 14 360 342 341 339 344 342 342 348 336 327 342 350 159 155 161
272 265 252 229 251 236 250 273 286 337 309 271 295 240 226 323 182 246 209 207 220 179 177 138 162 157 161 136 13 9 353 349 342 338 352 345 338 344 20 12 349 300 241 192